{"data":{"norad_id":65180,"epoch":"2026-05-25T03:37:56.241696Z","epoch_age_seconds":68872,"freshness":"FRESH","line1":"1 65180U 25175G   26145.15134539  .00000959  00000+0  70489-4 0  9993","line2":"2 65180  97.4489  17.6146 0002305  75.1421 285.0061 15.05655607 44143","mean_motion":15.05655607,"eccentricity":0.0002305,"inclination_deg":97.4489,"raan_deg":17.6146,"arg_perigee_deg":75.1421,"mean_anomaly_deg":285.0061,"bstar":7.0489e-5,"rev_number":4414,"period_min":95.639400757068,"perigee_km":547.8971362407,"apogee_km":551.09077411104,"semimajor_km":6927.6309551759,"source":"CELESTRAK","updated_at":"2026-05-25T13:38:20.690030Z"}}